www.pogodaiklimat.ru

Погода и климат >> Архив погоды >> Россия >> Краснодарский край >> Новороссийск


АРХИВ ПОГОДЫ в Новороссийске

Время (UTC), дата Ветер
(напр.,м/с)
 
Видим.   Явления Облачность Т
(С)
Тd
(С)
f
(%)
Тe
(С)
Тes
(С)
Комфортность P
(гПа)
Po
(гПа)
Тmin
(С)
Tmax
(С)
R
(мм)
R24
(мм)
S
(см)
09 12.07 СВ 2 20 км 3/3 1000 м
[Cu hum]
+25.0 +10.4 40 +26 +39 жарко 1008.2 1007.0
12 12.07 Ю 3 20 км 5/3 1000 м
[Cb calv Ci]
+24.9 +13.3 48 +27 +34 жарко 1008.1 1006.9
15 12.07 З 2 20 км 8/5 600 м
[Cu Sc Ac As]
+24.0 +11.7 46 +26 +26 жарко 1008.5 1007.2 +26.8
18 12.07 штиль 0 10 км 9/1 600 м
[Sc Ac und]
+21.7 +12.2 55 +24 +24 комфорт 1009.0 1007.7
21 12.07 штиль 0 10 км зарница 8/3 1000 м
[Cb calv Ac trans Ci fib]
+20.4 +12.2 59 +22 +22 комфорт 1009.0 1007.7
00 13.07 Ю 1 10 км слаб. ливневой дождь {гроза} 10/8 1000 м
[Cb cap Ac As]
+17.3 +14.3 83 +18 +18 прохладно 1008.2 1006.9
03 13.07 СЗ 1 20 км в посл. час гроза {ливн. осадки} 4/4 1000 м
[Cb cap]
+16.3 +12.3 77 +17 +18 холодно 1008.6 1007.3 +16.1 6
06 13.07 Ю 1 20 км {гроза, ливн. осадки} 8/5 1000 м
[Cb cap Ci fib]
+21.1 +12.8 59 +23 +28 комфорт 1009.6 1008.3
09 13.07 Ю 2 20 км {ливн. осадки} 4/3 1000 м
[Cu med, cong Ac trans]
+23.1 +12.8 52 +26 +38 жарко 1010.1 1008.8
12 13.07 ЮЗ 4 20 км {ливн. осадки} 6/4 600 м
[Cb cap Cc]
+22.8 +12.3 52 +26 +31 жарко 1010.4 1009.1
15 13.07 Ю 1 20 км 4/4 600 м
[Cu hum]
+22.8 +10.5 46 +25 +27 комфорт 1010.8 1009.5 +24.4 0.4
18 13.07 СВ 1 10 км 3/3 600 м
[Sc]
+20.0 +11.7 59 +23 +23 комфорт 1011.4 1010.1
21 13.07 СВ 1 10 км 3/3 600 м
[Sc]
+17.8 +12.2 70 +19 +19 прохладно 1011.4 1010.1
00 14.07 СВ 1 10 км 3/0
[Ci fib]
+16.6 +12.6 77 +17 +17 прохладно 1010.6 1009.3
03 14.07 штиль 0 20 км 4/3 600 м
[Cu Sc Ci sp]
+17.1 +13.8 81 +17 +18 холодно 1010.4 1009.1 +16.5
06 14.07 ЮЗ 1 20 км 5/5 600 м
[Sc diur, vesp]
+21.9 +14.5 63 +25 +31 комфорт 1010.6 1009.3
09 14.07 Ю 2 20 км 8/4 600 м
[Cb calv Ci fib]
+24.3 +15.0 56 +27 +37 жарко 1009.8 1008.5
12 14.07 Ю 2 20 км 10/3 600 м
[Cb calv Ci fib]
+25.7 +13.5 47 +28 +35 жарко 1009.3 1008.0
15 14.07 Ю 1 20 км 10/0
[Ac trans Cs]
+24.3 +13.5 51 +27 +29 жарко 1008.2 1006.9 +26.1
18 14.07 СВ 3 10 км 10/0
[Ac lent Cs]
+23.0 +12.0 50 +26 +26 жарко 1007.4 1006.2
21 14.07 СВ 6-10
{11}
10 км 10/0
[Cc]
+22.8 +12.7 53 +26 +26 жарко 1006.0 1004.7
00 15.07 СВ 6-10
{11}
10 км ясно +22.0 +11.7 52 +24 +24 комфорт 1004.3 1003.0
03 15.07 СВ 8-13
{11}
20 км 6/0
[Ci fib]
+22.2 +10.3 47 +24 +24 комфорт 1002.4 1001.1 +21.6
06 15.07 СВ 8-13
{16}
20 км 10/0
[Ac trans Cs]
+23.8 +12.0 48 +26 +27 жарко 1002.2 1000.9
09 15.07 СВ 3
{15}
20 км 10/0
[Ac As]
+24.5 +12.2 46 +26 +31 жарко 1003.3 1002.0
12 15.07 В 1 20 км слаб. дождь 10/10 600 м
[Frnb Ns]
+20.1 +16.0 77 +24 +24 комфорт 1004.8 1003.5
15 15.07 СВ 2 20 км в посл. час дождь 9/4 600 м
[Sc Ac trans]
+18.6 +14.4 77 +20 +21 холодно 1004.2 1002.9 +24.9 6
18 15.07 СВ 2 10 км {дождь} 10/10 600 м
[Sc]
+18.8 +15.0 79 +20 +20 прохладно 1005.5 1004.2
21 15.07 штиль 0 10 км {гроза, ливн. осадки} 8/3
[Sc Ac trans]
+18.1 +15.8 86 +18 +18 прохладно 1005.2 1003.9
00 16.07 штиль 0 10 км {гроза, ливн. осадки} 6/6 600 м
[Sc]
+18.0 +16.0 88 +18 +18 прохладно 1004.5 1003.2
03 16.07 штиль 0 20 км 8/3 600 м
[Sc Ac trans]
+18.2 +15.9 86 +19 +19 прохладно 1005.0 1003.7 +17.5 8
06 16.07 штиль 0 20 км слаб. ливневой дождь 9/9 600 м
[Cb cap]
+19.9 +16.1 79 +22 +23 комфорт 1005.8 1004.5
09 16.07 ЮЗ 2 20 км {ливн. осадки} 8/5 1000 м
[Cb cap Ac As]
+22.8 +14.1 58 +26 +32 жарко 1006.8 1005.5
12 16.07 ЮЗ 6 20 км {ливн. осадки} 9/9 600 м
[Cb cap]
+22.7 +16.7 69 +27 +28 душно 1007.9 1006.6
15 16.07 ЮЗ 5 20 км 8/4 600 м
[Sc diur, vesp Ac As]
+23.2 +16.4 66 +28 +28 душно 1009.0 1007.7 +24.0 2
18 16.07 Ю 2 10 км гроза, ливневой дождь 10/10 600 м
[Cb calv]
+22.8 +17.4 72 +28 +28 душно 1009.9 1008.7
21 16.07 Ю 1 10 км {гроза, ливн. осадки} 10/10 600 м
[Cb cap]
+22.7 +17.9 74 +28 +28 душно 1009.7 1008.4
00 17.07 Ю 2 10 км {гроза, ливн. осадки} 10/10 600 м
[Sc]
+22.7 +17.3 72 +28 +28 душно 1009.1 1007.8
03 17.07 С 1 20 км слаб. ливневой дождь, в посл. час гроза 9/9
[Cb cap]
+20.9 +17.8 82 +26 +26 душно 1009.0 1007.7 +20.7 6
06 17.07 Ю 1 20 км {гроза, ливн. осадки} 6/5 1000 м
[Cb cap Ci fib]
+24.3 +18.0 68 +29 +34 душно 1008.6 1007.3
09 17.07 Ю 2 20 км 4/3 1000 м
[Cu med, cong Ci fib]
+25.8 +17.8 61 +30 +43 душно 1008.1 1006.8
12 17.07 Ю 2 20 км 6/3 600 м
[Cu med, cong Ac trans Ci fib]
+27.2 +13.8 44 +29 +37 жарко 1007.1 1005.9
15 17.07 СВ 2 20 км 3/3 600 м
[Cu med, cong Cc]
+28.2 +14.0 42 +30 +32 жарко 1006.5 1005.2 +28.7
18 17.07 СВ 5-11
{11}
10 км 3/0
[Ci fib]
+24.2 +14.7 55 +27 +27 жарко 1006.5 1005.2
21 17.07 СВ 6-10
{11}
10 км 3/0
[Ci fib]
+23.7 +12.8 50 +26 +26 жарко 1006.3 1005.0
00 18.07 СВ 6-10
{11}
10 км 8/8 600 м
[Sc]
+23.4 +11.0 46 +26 +26 жарко 1005.9 1004.6
03 18.07 СВ 7-12
{13}
20 км 8/0
[Cc]
+22.3 +13.6 58 +25 +25 комфорт 1005.9 1004.6 +22.3
06 18.07 СВ 8-13
{14}
20 км 10/3 1000 м
[Cu Sc Ac lent Ci fib]
+23.7 +12.3 49 +26 +26 жарко 1005.9 1004.6 +22.2
09 18.07 СВ 7-12
{14}
20 км 10/3 1000 м
[Cu Sc Ac As Cc]
+26.3 +13.0 44 +28 +30 жарко 1006.4 1005.2
12 18.07 СВ 3
{13}
20 км 10/0
[Ac trans Cs]
+28.0 +14.3 43 +30 +38 жарко 1007.5 1006.2
15 18.07 С 1 20 км 10/0
[Ac trans Cc]
+27.3 +15.3 48 +30 +32 душно 1008.8 1007.5 +28.0
18 18.07 СВ 4 10 км 10/0
[Ac lent Cc]
+24.5 +15.7 58 +28 +28 душно 1009.9 1008.7
21 18.07 СВ 3
{10}
10 км 8/0
[Cc]
+22.8 +16.1 66 +27 +27 душно 1011.1 1009.8
00 19.07 СЗ 4 10 км 6/0
[Cc]
+22.1 +16.1 69 +26 +26 душно 1011.7 1010.4
03 19.07 С 2 10 км 4/0
[Cc]
+22.5 +14.9 62 +26 +27 жарко 1012.7 1011.4 +21.9
06 19.07 СВ 4-10
{10}
20 км 5/0
[Cc]
+25.7 +15.4 53 +29 +34 душно 1013.3 1012.1

 

Местоположение метеостанции Новороссийск (Краснодарский край, Россия): широта 44.72 долгота 37.85 высота над уровнем моря 3 м.

В архиве по умолчанию представлена погода в Новороссийске за последнюю неделю. Архивные данные за месяц целиком и за предыдущие месяцы, начиная с января 2011 года, Вы можете получить, выбрав интересующий диапазон дат из раскрывающегося списка и нажав кнопку "Ввод!".


*Определитесь, кто Вы:
робот инопланетянин человек

Внимание! Время в таблицах - всемирное. Для получения местного времени необходимо прибавить поправку, которая равна 3 ч.

Смотрите также архив погоды в соседних городах и на ближайших метеорологических станциях:

Погода в Геленджике (Краснодарский край, Россия) (25 км)
Погода в Крымске (Краснодарский край, Россия) (25 км)
Погода в Анапе (Краснодарский край, Россия) (48 км)
Погода в Славянске-на-Кубани (Краснодарский край, Россия) (66 км)
Погода в Темрюке (Краснодарский край, Россия) (76 км)
Погода в Джубге (Краснодарский край, Россия) (81 км)
Погода в Горячем Ключе (Краснодарский край, Россия) (99 км)
Погода в Краснодаре (Краснодарский край, Россия) (100 км)
Погода в Тамани (Краснодарский край, Россия) (105 км)
Погода в Туапсе (Краснодарский край, Россия) (119 км)

Пояснения к столбцам:

Ветер - указаны скорость ветра в м/с - средняя за 10 мин, порывы в срок и между сроками (в фигурных скобках) и направление, откуда дует ветер: С - северный, СВ - северо-восточный, В - восточный, ЮВ - юго-восточный, Ю - южный, ЮЗ - юго-западный, З - западный, СЗ - северо-западный.
Видимость - горизонтальная дальность видимости в метрах или километрах. При видимости от 1 до 10 км при отсутствии осадков обычно наблюдается дымка, при ухудшении видимости до 1 км и менее - туман. В сухую погоду видимость может ухудшаться дымом, пылью или мглою.
Явления - указаны атмосферные явления, наблюдавшиеся в срок или в последний час перед сроком; фигурными скобками обозначены явления, наблюдавшиеся между сроками (за 1-3 часа до срока); квадратными скобками обозначены град или гололедные отложения с указанием их диаметра в мм.
Облачность - указаны через наклонную черту общая и нижняя облачность в баллах и высота нижней границы облаков в метрах; квадратными скобками обозначены формы облаков: Ci - перистые, Cs - перисто-слоистые, Cc - перисто-кучевые, Ac - высококучевые, As - высокослоистые, Sc - слоисто-кучевые, Ns - слоисто-дождевые, Cu - кучевые, Cb - кучево-дождевые. Подробнее классификацию облаков см. в Атласе облаков (PDF).
T - Температура воздуха - температура, измеренная на высоте 2 м над землей.
Td - Температура точки росы - температура, при понижении до которой содержащийся в воздухе водяной пар достигнет насыщения.
f - Относительная влажность воздуха - влажноcть воздуха, измеренная на высоте 2 м над землей.
Te - Эффективная температура - температура, которую ощущает одетый по сезону человек в тени. Характеристика душности погоды. При расчете учитывается влияние влажности воздуха и скорости ветра на теплоощущения человека.
Tes - Эффективная температура на солнце - температура, которую ощущает человек, с поправкой на солнечный нагрев. Характеристика знойности погоды. Зависит от высоты солнца над горизонтом, облачности и скорости ветра. Ночью, в пасмурную погоду, а также при ветре 12 м/с и более поправка равна нулю.
P - Атмосферное давление - приведенное к уровню моря атмосферное давление.
Po - Атмосферное давление - измеренное на уровне метеостанции атмосферное давление.
Tmin - Минимальная температура - минимум температуры воздуха на высоте 2 м над землей.
Tmax - Максимальная температура - максимум температуры воздуха на высоте 2 м над землей.
R - Количество осадков - Количество выпавших осадков за период времени, мм. При наведении курсора мыши на число - период времени, за который выпало указанное количество осадков.
R24 - Количество осадков - Количество выпавших осадков за 24 часа, мм.
S - Снежный покров - Высота снежного покрова, см. При наведении курсора мыши на число - состояние снежного покрова и степень покрытия местности в баллах.